Location: Gro�sch�nbrunn
(49.5760°N, 11.8868°E)
Time: 01:04:43
(UTC+00:00)

Cosmos 2263 Rocket - Pass Details

Date: 18 September 2020
Orbit: 822 x 850 km, 71.0° (Epoch: 30 October)

Event Time Altitude Azimuth Distance (km) Brightness Sun altitude
Rises 19:32:34 0° 241° (WSW) 3,352 5.7 -21.5°
Reaches altitude 10° 19:35:16 10° 251° (WSW) 2,425 5.1 -21.9°
Maximum altitude 19:40:10 31° 313° (NW) 1,422 4.0 -22.6°
Drops below altitude 10° 19:45:07 10° 15° (NNE) 2,450 4.8 -23.3°
Sets 19:47:52 0° 26° (NNE) 3,392 5.4 -23.6°
